TimeCDT,TemperatureF,Dew PointF,Humidity,Sea Level PressureIn,VisibilityMPH,Wind Direction,Wind SpeedMPH,Gust SpeedMPH,PrecipitationIn,Events,Conditions,WindDirDegrees,DateUTC
12:53 AM,72.0,61.0,68,29.75,10.0,South,16.1,25.3,N/A,,Clear,180,2012-10-25 05:53:00
1:53 AM,70.0,61.0,73,29.75,10.0,South,13.8,-,N/A,,Clear,180,2012-10-25 06:53:00
2:53 AM,70.0,62.1,76,29.75,10.0,South,13.8,-,N/A,,Scattered Clouds,170,2012-10-25 07:53:00
3:53 AM,70.0,62.1,76,29.73,10.0,South,17.3,-,N/A,,Mostly Cloudy,180,2012-10-25 08:53:00
4:53 AM,69.1,62.1,78,29.71,10.0,South,18.4,26.5,N/A,,Clear,180,2012-10-25 09:53:00
5:53 AM,69.1,62.1,78,29.72,10.0,South,20.7,26.5,N/A,,Clear,180,2012-10-25 10:53:00
6:53 AM,69.1,62.1,78,29.72,10.0,South,16.1,27.6,N/A,,Clear,190,2012-10-25 11:53:00
7:53 AM,70.0,63.0,78,29.73,10.0,SSW,16.1,21.9,N/A,,Scattered Clouds,200,2012-10-25 12:53:00
8:53 AM,71.1,63.0,75,29.74,10.0,SSW,18.4,25.3,N/A,,Overcast,200,2012-10-25 13:53:00
9:53 AM,72.0,64.0,76,29.74,10.0,SSW,16.1,25.3,N/A,,Overcast,210,2012-10-25 14:53:00
10:53 AM,72.0,64.0,76,29.76,10.0,WSW,15.0,25.3,N/A,,Mostly Cloudy,240,2012-10-25 15:53:00
10:57 AM,64.4,57.2,77,29.79,10.0,NW,24.2,32.2,N/A,,Overcast,310,2012-10-25 15:57:00
11:08 AM,53.6,51.8,94,29.82,10.0,WNW,25.3,34.5,0.00,Rain,Light Rain,300,2012-10-25 16:08:00
11:19 AM,53.6,50.0,88,29.83,10.0,NW,27.6,36.8,0.00,Rain,Light Rain,310,2012-10-25 16:19:00
11:53 AM,51.1,46.9,86,29.86,10.0,NW,19.6,33.4,0.00,,Overcast,310,2012-10-25 16:53:00
12:16 PM,48.2,46.4,93,29.89,8.0,WNW,17.3,28.8,0.00,Rain,Light Rain,300,2012-10-25 17:16:00
12:53 PM,46.9,45.0,93,29.91,2.5,NW,18.4,25.3,0.04,Rain,Rain,310,2012-10-25 17:53:00
1:03 PM,46.4,44.6,93,29.92,2.0,NW,12.7,25.3,0.02,Rain,Rain,320,2012-10-25 18:03:00
1:10 PM,46.4,44.6,93,29.92,7.0,NW,18.4,29.9,0.03,Rain,Light Rain,320,2012-10-25 18:10:00
1:32 PM,46.4,44.6,93,29.94,7.0,NW,18.4,25.3,0.04,Rain,Light Rain,310,2012-10-25 18:32:00
1:53 PM,46.9,43.0,86,29.95,10.0,NNW,18.4,24.2,0.04,,Overcast,330,2012-10-25 18:53:00
3:01 PM,46.4,42.8,87,30.00,10.0,NW,16.1,28.8,N/A,,Overcast,310,2012-10-25 20:01:00
3:17 PM,44.6,42.8,93,30.00,10.0,NW,17.3,29.9,N/A,,Overcast,310,2012-10-25 20:17:00
3:46 PM,44.6,41.0,87,30.02,10.0,NW,16.1,24.2,N/A,,Overcast,310,2012-10-25 20:46:00
3:53 PM,45.0,41.0,86,30.02,10.0,NW,18.4,26.5,N/A,,Overcast,320,2012-10-25 20:53:00
4:53 PM,46.0,39.9,79,30.06,10.0,NNW,19.6,27.6,N/A,,Overcast,330,2012-10-25 21:53:00
5:53 PM,46.0,39.0,76,30.08,10.0,NNW,17.3,26.5,N/A,,Overcast,340,2012-10-25 22:53:00
6:53 PM,46.9,39.0,74,30.12,10.0,NNW,11.5,19.6,N/A,,Overcast,330,2012-10-25 23:53:00
7:33 PM,46.4,39.2,76,30.14,10.0,NNW,12.7,23.0,N/A,,Overcast,340,2012-10-26 00:33:00
7:53 PM,46.0,39.0,76,30.15,10.0,NNW,10.4,-,N/A,,Overcast,330,2012-10-26 00:53:00
8:53 PM,45.0,37.9,76,30.19,10.0,NNW,11.5,-,N/A,,Mostly Cloudy,340,2012-10-26 01:53:00
9:53 PM,45.0,36.0,71,30.21,10.0,NNW,19.6,27.6,N/A,,Mostly Cloudy,340,2012-10-26 02:53:00
10:31 PM,44.6,35.6,71,30.24,10.0,North,16.1,25.3,N/A,,Overcast,350,2012-10-26 03:31:00
10:53 PM,44.1,36.0,73,30.24,10.0,NNW,10.4,20.7,N/A,,Overcast,340,2012-10-26 03:53:00
11:53 PM,42.1,33.1,70,30.28,10.0,North,19.6,27.6,N/A,,Overcast,350,2012-10-26 04:53:00